[[{"header":{"parameterUnit":"m.s-1","parameterCategory":1,"la1":30.2991,"la2":30.254,"lo1":-89.0895,"lo2":-89.0444,"dy":0.0017,"dx":0.0017,"nx":28,"ny":28,"refTime":"2024-05-07T21:00:00:Z","depth":0,"parameterNumber":2,"parameterNumberName":"U-component_of_WINDS"},"data":[0,0,0,0,0,0,0,0,0,0,0,0,0,0,0,0,0,0,0,0,0,0,0,0,0,0,0,0,0,0,0,0,0,0,0,0,0,0,0,0,0,0,0,0,0,0,0,0,0,0,0,0,0,0,0,0,0,0,-1.1504,-1.1503,0,-1.1464,-1.1464,-1.1463,-1.1445,-1.1445,-1.1445,-1.1445,-1.1404,-1.1402,-1.1401,0,0,0,0,0,0,0,0,0,0,0,0,0,-1.1562,-1.1561,-1.1504,-1.1503,-1.1503,-1.1464,-1.1464,-1.1463,-1.1445,-1.1445,-1.1445,-1.1445,-1.1404,-1.1403,-1.1401,0,0,0,0,0,0,0,0,0,0,0,0,0,-1.1531,-1.1561,-1.1504,-1.1489,-1.1487,-1.1464,-1.1464,-1.1463,-1.1445,-1.1445,-1.1445,-1.1445,-1.1404,-1.1403,-1.1401,-1.139,0,0,-1.1396,-1.1395,0,0,0,0,0,0,0,0,-1.1533,-1.1529,-1.1492,-1.149,-1.1488,-1.146,-1.1469,-1.1438,-1.1445,-1.1461,-1.1445,-1.1445,-1.1422,-1.1419,-1.1411,-1.1388,-1.1386,-1.1396,-1.1395,-1.1394,-1.1393,0,0,0,0,0,0,0,-1.1535,-1.1531,-1.1488,-1.1491,-1.1489,-1.1484,-1.148,-1.1463,-1.1442,-1.1459,-1.1458,-1.1454,-1.1421,-1.1413,-1.141,-1.1385,-1.1396,-1.1394,-1.1393,-1.1393,-1.135,-1.135,0,0,0,0,0,0,-1.154,-1.1533,-1.1489,-1.1487,-1.1511,-1.1483,-1.1478,-1.1469,-1.1442,-1.1438,-1.1454,-1.1453,-1.1416,-1.1412,-1.1409,-1.1393,-1.1394,-1.1392,-1.1391,-1.135,-1.135,-1.135,0,0,0,0,0,0,-1.1541,-1.1536,-1.1491,-1.1509,-1.1503,-1.1482,-1.1471,-1.1468,-1.146,-1.1437,-1.1433,-1.145,-1.1416,-1.1411,-1.1395,-1.1392,-1.1392,-1.139,-1.135,-1.135,-1.135,-1.1363,0,0,0,0,0,0,-1.1543,-1.1537,-1.1533,-1.1509,-1.1502,-1.1478,-1.1471,-1.1467,-1.1457,-1.1456,-1.1433,-1.1429,-1.1415,-1.1397,-1.1393,-1.1389,-1.1389,-1.135,-1.135,-1.135,-1.1362,-1.1363,-1.1364,0,0,0,0,0,-1.1545,-1.1538,-1.1533,-1.1527,-1.1497,-1.1478,-1.1474,-1.1459,-1.1457,-1.1452,-1.1438,-1.1429,-1.1393,-1.1396,-1.1391,-1.1387,-1.135,-1.135,-1.135,-1.1362,-1.1363,-1.1364,0,0,0,0,0,0,-1.1561,-1.1535,-1.1528,-1.1514,-1.1498,-1.1475,-1.1468,-1.146,-1.1445,-1.1444,-1.1426,-1.1421,-1.1406,-1.1395,-1.1398,-1.1374,-1.1371,-1.1369,-1.1382,-1.1382,-1.1383,-1.1386,-1.1387,0,0,0,0,0,-1.1563,-1.155,-1.1528,-1.1517,-1.1509,-1.149,-1.1481,-1.1471,-1.1454,-1.1448,-1.1432,-1.1416,-1.14,-1.1391,-1.1376,-1.1361,-1.1355,-1.1355,-1.1356,-1.1357,-1.1356,-1.1346,-1.1346,-1.1349,-1.1349,-1.1349,0,0,-1.1567,-1.1551,-1.1544,-1.1519,-1.1506,-1.1493,-1.1485,-1.1471,-1.1461,-1.1446,-1.1429,-1.1417,-1.1397,-1.1382,-1.1374,-1.1372,-1.1353,-1.1356,-1.1357,-1.1355,-1.1346,-1.1346,-1.1345,-1.1349,-1.1349,-1.1349,0,0,-1.1567,-1.1553,-1.1542,-1.1529,-1.1509,-1.1497,-1.1494,-1.1472,-1.1463,-1.1446,-1.1434,-1.1422,-1.1396,-1.1382,-1.1372,-1.1366,-1.1358,-1.1362,-1.1364,-1.1355,-1.1355,-1.1355,-1.1352,-1.1351,-1.1361,-1.1361,-1.1361,0,-1.1574,-1.1553,-1.1538,-1.1525,-1.1514,-1.15,-1.1488,-1.1476,-1.1452,-1.1445,-1.1443,-1.141,-1.1396,-1.1376,-1.1375,-1.1367,-1.1363,-1.1364,-1.1356,-1.1356,-1.1355,-1.1353,-1.1352,-1.1361,-1.1361,-1.1361,-1.1361,0,-1.1563,-1.1549,-1.1542,-1.1519,-1.1508,-1.1496,-1.1478,-1.1468,-1.1459,-1.1447,-1.1429,-1.1412,-1.1392,-1.1387,-1.1378,-1.1366,-1.1365,-1.136,-1.1356,-1.1356,-1.1353,-1.1352,-1.1362,-1.1362,-1.1362,-1.1362,0,0,-1.1572,-1.154,-1.1538,-1.1527,-1.1504,-1.1493,-1.148,-1.1461,-1.1453,-1.1436,-1.1425,-1.1403,-1.1398,-1.1386,-1.1375,-1.1368,-1.1363,-1.1363,-1.1363,-1.1364,-1.1348,-1.1352,-1.1351,-1.1358,-1.1357,-1.1357,-1.135,0,-1.1568,-1.1544,-1.1529,-1.1511,-1.1497,-1.1483,-1.1472,-1.1456,-1.1444,-1.143,-1.1416,-1.1401,-1.1396,-1.1389,-1.138,-1.1366,-1.136,-1.1366,-1.1346,-1.1345,-1.1351,-1.135,-1.1354,-1.1348,-1.1349,-1.1348,-1.1348,0,-1.1561,-1.1545,-1.1525,-1.1503,-1.1496,-1.1486,-1.1468,-1.1455,-1.1437,-1.1428,-1.1415,-1.1404,-1.1389,-1.1387,-1.1365,-1.137,-1.1361,-1.1352,-1.1351,-1.1349,-1.1347,-1.1347,-1.1346,-1.1345,-1.1346,-1.1347,-1.1347,0,-1.1569,-1.1542,-1.1527,-1.1518,-1.1492,-1.1485,-1.1474,-1.1455,-1.1445,-1.1428,-1.1421,-1.1403,-1.1393,-1.1379,-1.1363,-1.1363,-1.1343,-1.134,-1.1335,-1.1336,-1.1332,-1.1332,-1.1329,-1.1327,-1.1327,-1.1327,-1.1327,0,-1.1566,-1.1554,-1.153,-1.1521,-1.1507,-1.149,-1.1477,-1.1464,-1.1448,-1.1436,-1.1422,-1.1411,-1.1391,-1.1377,-1.1364,-1.1348,-1.1344,-1.1336,-1.1333,-1.1337,-1.1338,-1.1331,-1.133,-1.1326,-1.1326,-1.1326,-1.1326,0,-1.1573,-1.1556,-1.1538,-1.1515,-1.1508,-1.1499,-1.1479,-1.1469,-1.1456,-1.144,-1.1436,-1.1415,-1.1397,-1.138,-1.1357,-1.1348,-1.1332,-1.1328,-1.1339,-1.1337,-1.1333,-1.1334,-1.1325,-1.1322,-1.1322,-1.1322,-1.1322,0,-1.1572,-1.1563,-1.1538,-1.1529,-1.1517,-1.1503,-1.1492,-1.1474,-1.1464,-1.1441,-1.1434,-1.1416,-1.14,-1.1373,-1.1355,-1.1337,-1.1332,-1.1331,-1.133,-1.1334,-1.1332,-1.1332,-1.1331,-1.1331,-1.1331,-1.1331,-1.1331,0,-1.1572,-1.1564,-1.1549,-1.1531,-1.1518,-1.1503,-1.1487,-1.148,-1.146,-1.1448,-1.143,-1.1418,-1.1394,-1.1376,-1.1356,-1.1343,-1.1334,-1.1332,-1.133,-1.1334,-1.134,-1.1336,-1.134,-1.1332,-1.1332,-1.1332,-1.1332,-1.1332,-1.1575,-1.1566,-1.1547,-1.153,-1.1516,-1.1502,-1.1491,-1.1476,-1.1461,-1.144,-1.1431,-1.1413,-1.1394,-1.1366,-1.1354,-1.1339,-1.1336,-1.1333,-1.1333,-1.1332,-1.1333,-1.1343,-1.1335,-1.1335,-1.1335,-1.1335,-1.1335,0,-1.1574,-1.1561,-1.1546,-1.1524,-1.1511,-1.1503,-1.1485,-1.1474,-1.1459,-1.1442,-1.1427,-1.1406,-1.1388,-1.1369,-1.135,-1.1341,-1.1336,-1.1337,-1.1337,-1.1334,-1.1336,-1.134,-1.1341,-1.1341,-1.1341,-1.1341,-1.1341,-1.1341,-1.1572,-1.1556,-1.1546,-1.1522,-1.1509,-1.1491,-1.1482,-1.1468,-1.1454,-1.1432,-1.1417,-1.1405,-1.1387,-1.1366,-1.1349,-1.1344,-1.1337,-1.1339,-1.1332,-1.1335,-1.1334,-1.1334,-1.1337,-1.1338,-1.1338,-1.1331,-1.1331,-1.1331]},{"header":{"parameterUnit":"m.s-1","parameterCategory":1,"la1":30.2991,"la2":30.254,"lo1":-89.0895,"lo2":-89.0444,"dy":0.0017,"dx":0.0017,"nx":28,"ny":28,"refTime":"2024-05-07T21:00:00:Z","depth":0,"parameterNumber":3,"parameterNumberName":"V-component_of_WINDS"},"data":[0,0,0,0,0,0,0,0,0,0,0,0,0,0,0,0,0,0,0,0,0,0,0,0,0,0,0,0,0,0,0,0,0,0,0,0,0,0,0,0,0,0,0,0,0,0,0,0,0,0,0,0,0,0,0,0,0,0,6.2001,6.2002,0,6.2082,6.2083,6.2084,6.2015,6.2012,6.201,6.2007,6.2084,6.2089,6.2093,0,0,0,0,0,0,0,0,0,0,0,0,0,6.1782,6.1787,6.2001,6.2002,6.2003,6.2082,6.2083,6.2084,6.2016,6.2012,6.2009,6.2006,6.2083,6.2088,6.2094,0,0,0,0,0,0,0,0,0,0,0,0,0,6.1872,6.1788,6.2001,6.1979,6.1978,6.2082,6.2083,6.2085,6.2017,6.2012,6.2008,6.2004,6.2081,6.2088,6.2095,6.2223,0,0,6.2116,6.2119,0,0,0,0,0,0,0,0,6.1867,6.188,6.1981,6.1981,6.1979,6.2034,6.2034,6.2131,6.2018,6.2002,6.2007,6.2002,6.2071,6.2078,6.2103,6.2227,6.223,6.2117,6.2121,6.2124,6.2126,0,0,0,0,0,0,0,6.1861,6.1876,6.2033,6.1983,6.1982,6.1963,6.1971,6.2052,6.2059,6.2003,6.1998,6.2009,6.2069,6.2096,6.2104,6.2231,6.2117,6.2123,6.2127,6.213,6.2466,6.247,0,0,0,0,0,0,6.1858,6.1871,6.2031,6.2036,6.1912,6.1971,6.1979,6.2021,6.2058,6.2059,6.2012,6.2005,6.2086,6.2096,6.2106,6.226,6.2124,6.2131,6.2135,6.2461,6.2467,6.2472,0,0,0,0,0,0,6.1853,6.1872,6.2027,6.1952,6.1971,6.1979,6.2026,6.2025,6.2051,6.2065,6.2065,6.2039,6.2083,6.2096,6.2195,6.2262,6.2134,6.214,6.2456,6.2463,6.2469,6.2569,0,0,0,0,0,0,6.1847,6.1871,6.1921,6.1954,6.1975,6.2117,6.203,6.2029,6.2065,6.2056,6.209,6.2091,6.2081,6.2185,6.2202,6.2269,6.2146,6.245,6.2459,6.2467,6.2559,6.2578,6.2594,0,0,0,0,0,6.184,6.1945,6.1924,6.1944,6.2038,6.2121,6.2132,6.212,6.207,6.212,6.2129,6.209,6.2252,6.2196,6.2215,6.2285,6.2445,6.2456,6.2467,6.2552,6.2574,6.2594,0,0,0,0,0,0,6.1917,6.1948,6.1926,6.2045,6.2081,6.2109,6.2171,6.2144,6.2193,6.2183,6.2163,6.2171,6.2276,6.229,6.2227,6.2411,6.234,6.2355,6.2399,6.242,6.2438,6.2432,6.2152,0,0,0,0,0,6.1949,6.2015,6.2038,6.2141,6.216,6.2163,6.2198,6.2186,6.2221,6.2235,6.2251,6.2286,6.2344,6.2383,6.2437,6.2561,6.2567,6.2618,6.2636,6.265,6.2663,6.273,6.2753,6.2507,6.2507,6.2506,0,0,6.2014,6.2039,6.2081,6.2157,6.2183,6.2251,6.2176,6.225,6.23,6.2246,6.2341,6.2354,6.2391,6.2503,6.2553,6.2518,6.2732,6.2663,6.2675,6.268,6.2743,6.2766,6.2787,6.2514,6.2513,6.2511,0,0,6.2167,6.2193,6.2282,6.231,6.2352,6.2353,6.2375,6.2407,6.2414,6.251,6.2471,6.2529,6.263,6.2658,6.2686,6.2851,6.2817,6.2869,6.2959,6.3025,6.3044,6.3061,6.312,6.3142,6.2882,6.2882,6.2882,0,6.2241,6.2344,6.233,6.2409,6.2443,6.2399,6.2488,6.2516,6.2572,6.2596,6.2556,6.2683,6.2705,6.2823,6.2864,6.2888,6.2911,6.2865,6.3043,6.306,6.3075,6.3132,6.3154,6.2888,6.2887,6.2887,6.2886,0,6.2434,6.2505,6.2572,6.263,6.2672,6.2755,6.2753,6.2796,6.278,6.2786,6.2883,6.2908,6.2967,6.2994,6.2978,6.3111,6.3088,6.3046,6.2974,6.3105,6.3158,6.3179,6.2897,6.2894,6.2893,6.2891,0,0,6.2637,6.2689,6.2713,6.274,6.2783,6.2837,6.2918,6.2978,6.3016,6.3056,6.3123,6.321,6.3172,6.3204,6.319,6.3248,6.3377,6.3199,6.3199,6.3231,6.3525,6.3557,6.3582,6.3356,6.336,6.3363,6.3522,0,6.2792,6.2936,6.2927,6.3061,6.3127,6.3087,6.3157,6.319,6.3198,6.3253,6.326,6.3322,6.3267,6.3286,6.3341,6.335,6.3436,6.3338,6.3417,6.342,6.3409,6.3609,6.3643,6.3792,6.3543,6.3546,6.3548,0,6.2992,6.3043,6.3185,6.3219,6.3246,6.331,6.3365,6.3419,6.3455,6.3456,6.3493,6.347,6.355,6.3477,6.3587,6.3521,6.3552,6.3562,6.3567,6.3574,6.3492,6.3622,6.3839,6.3862,6.3581,6.3578,6.3576,0,6.3128,6.323,6.3329,6.3352,6.3394,6.344,6.346,6.3492,6.3529,6.3576,6.36,6.3655,6.3685,6.3728,6.372,6.3668,6.3833,6.3759,6.3835,6.3836,6.3872,6.387,6.4098,6.3892,6.3891,6.3891,6.3891,0,6.3302,6.339,6.339,6.3451,6.3548,6.3536,6.3632,6.3646,6.3676,6.3737,6.3704,6.3762,6.3749,6.3806,6.38,6.3893,6.3906,6.3909,6.3906,6.3912,6.3912,6.3932,6.3922,6.3897,6.3896,6.3894,6.3893,0,6.3469,6.3473,6.3577,6.361,6.362,6.369,6.3717,6.3774,6.3778,6.3857,6.3874,6.3881,6.3947,6.3944,6.4018,6.4014,6.4128,6.4113,6.4116,6.4113,6.419,6.4183,6.4439,6.4473,6.4245,6.4247,6.4249,0,6.358,6.3648,6.3688,6.3728,6.3752,6.3816,6.3854,6.3844,6.3885,6.3933,6.3984,6.4047,6.4097,6.4204,6.4214,6.4271,6.4257,6.4343,6.4265,6.4269,6.4259,6.4255,6.4262,6.4358,6.4361,6.4363,6.4364,0,6.3778,6.3777,6.3834,6.3893,6.394,6.3985,6.4027,6.4061,6.4055,6.4102,6.4171,6.421,6.4286,6.4349,6.4404,6.4421,6.4392,6.4389,6.441,6.4417,6.4416,6.4418,6.4158,6.4383,6.4381,6.438,6.4379,6.4378,6.392,6.3979,6.4017,6.4083,6.4113,6.4153,6.4208,6.4221,6.4278,6.4342,6.4332,6.4408,6.4443,6.4513,6.4536,6.4594,6.4564,6.4593,6.4601,6.4609,6.4618,6.4407,6.4604,6.4603,6.4603,6.4602,6.4602,0,6.4117,6.414,6.42,6.426,6.4312,6.4282,6.4326,6.4371,6.4439,6.4475,6.4526,6.4604,6.4665,6.4682,6.474,6.4784,6.4772,6.48,6.4796,6.4801,6.4642,6.4618,6.4808,6.4808,6.4808,6.4808,6.4808,6.4808,6.4225,6.4323,6.4326,6.4438,6.446,6.4536,6.4564,6.46,6.4629,6.4719,6.4771,6.4782,6.481,6.487,6.4925,6.4928,6.4951,6.4984,6.4982,6.4833,6.4812,6.4792,6.477,6.4989,6.499,6.5136,6.5138,6.5139]}]]